Marshall, MN

5:43 AM CDT on May 24, 2017 (GMT -0500)
Marshall Municipal-Ryan

Weather History for KMML - January, 2013

Change the Weather History Date:

Saturday, January 26, 2013

  Actual Average Record
Temperature  
Mean Temperature 13 °F -  
Max Temperature 26 °F 23 °F 51 °F (2002)
Min Temperature 0 °F 2 °F -23 °F (1950)
Degree Days  
Heating Degree Days 52    
Moisture  
Dew Point 4 °F    
Average Humidity 69    
Maximum Humidity 80    
Minimum Humidity 54    
Precipitation  
Precipitation 0.00 in - - ()
Sea Level Pressure  
Sea Level Pressure 30.12 in    
Wind  
Wind Speed 7 mph (SE)    
Max Wind Speed 17 mph    
Max Gust Speed 20 mph    
Visibility 10 miles    
Events      
Averages and records for this station are not official NWS values.
T = Trace of Precipitation, MM = Missing Value Source: NWS Daily Summary

Daily Weather History Graph

Daily Weather History Graph

Search for Another Location

Airport or City:

Trip Planner

Search our weather history database for the weather conditions in past years. The results will help you decide how hot, cold, wet, or windy it might be!

Date:

Astronomy

Jan. 26, 2013 Rise Set
Actual Time 7:47 AM CST 5:24 PM CST
Civil Twilight 7:16 AM CST 5:56 PM CST
Nautical Twilight 6:41 AM CST 6:31 PM CST
Astronomical Twilight 6:06 AM CST 7:05 PM CST
Moon 5:22 PM CST (1/26) 7:04 AM CST (1/26)
Length of Visible Light 10h 39m
Length of Day
9h 36m
Full, 100% of the Moon is Illuminated
Jan 26
Full
Jan 26
Full
Feb 3
Last Quarter
Feb 10
New
Feb 17
First Quarter

Hourly Weather History & Observations

Time (CST) Temp. Windchill Dew Point Humidity Pressure Visibility Wind Dir Wind Speed Gust Speed Precip Events Conditions
12:15 AM -0.4 °F -10.4 °F -5.8 °F 78% 30.28 in 10.0 mi NNW 4.6 mph - N/A   Clear
12:35 AM 1.4 °F -6.2 °F -5.8 °F 72% 30.27 in 10.0 mi NNW 3.5 mph - N/A   Clear
12:55 AM -0.4 °F - -5.8 °F 78% 30.28 in 10.0 mi Calm Calm - N/A   Clear
1:15 AM -0.4 °F -8.3 °F -5.8 °F 78% 30.27 in 10.0 mi NW 3.5 mph - N/A   Clear
1:35 AM -0.4 °F -8.3 °F -5.8 °F 78% 30.27 in 10.0 mi North 3.5 mph - N/A   Clear
1:55 AM -0.4 °F - -5.8 °F 78% 30.27 in 10.0 mi Calm Calm - N/A   Clear
2:15 AM -0.4 °F - -5.8 °F 78% 30.27 in 10.0 mi Calm Calm - N/A   Clear
2:35 AM -0.4 °F - -5.8 °F 78% 30.28 in 10.0 mi Calm Calm - N/A   Clear
2:55 AM -0.4 °F - -5.8 °F 78% 30.27 in 10.0 mi Calm Calm - N/A   Clear
3:15 AM -0.4 °F - -5.8 °F 78% 30.26 in 10.0 mi Calm Calm - N/A   Clear
3:35 AM -0.4 °F -8.3 °F -5.8 °F 78% 30.25 in 10.0 mi SE 3.5 mph - N/A   Clear
3:55 AM -0.4 °F -10.4 °F -5.8 °F 78% 30.25 in 10.0 mi SE 4.6 mph - N/A   Clear
4:15 AM -0.4 °F -8.3 °F -5.8 °F 78% 30.26 in 10.0 mi SSE 3.5 mph - N/A   Clear
4:35 AM -0.4 °F -10.4 °F -5.8 °F 78% 30.25 in 10.0 mi South 4.6 mph - N/A   Clear
4:55 AM -0.4 °F -10.4 °F -5.8 °F 78% 30.25 in 10.0 mi SSE 4.6 mph - N/A   Clear
5:15 AM -0.4 °F -10.4 °F -5.8 °F 78% 30.23 in 10.0 mi ESE 4.6 mph - N/A   Clear
5:35 AM -0.4 °F -12.0 °F -5.8 °F 78% 30.23 in 10.0 mi SE 5.8 mph - N/A   Clear
5:55 AM -0.4 °F -13.4 °F -5.8 °F 78% 30.22 in 10.0 mi SE 6.9 mph - N/A   Clear
6:15 AM 1.4 °F -12.5 °F -5.8 °F 72% 30.22 in 10.0 mi SE 8.1 mph - N/A   Clear
6:35 AM 1.4 °F -12.5 °F -5.8 °F 72% 30.21 in 10.0 mi SE 8.1 mph - N/A   Clear
6:55 AM 1.4 °F -11.3 °F -5.8 °F 72% 30.23 in 10.0 mi SSE 6.9 mph - N/A   Clear
7:15 AM 1.4 °F -12.5 °F -5.8 °F 72% 30.22 in 10.0 mi SE 8.1 mph - N/A   Clear
7:35 AM 1.4 °F -11.3 °F -4.0 °F 78% 30.22 in 10.0 mi SE 6.9 mph - N/A   Clear
7:55 AM 3.2 °F -9.1 °F -2.2 °F 78% 30.22 in 10.0 mi SE 6.9 mph - N/A   Clear
8:15 AM 3.2 °F -10.3 °F -2.2 °F 78% 30.21 in 10.0 mi ESE 8.1 mph - N/A   Clear
8:35 AM 3.2 °F -10.3 °F -2.2 °F 78% 30.21 in 10.0 mi SE 8.1 mph - N/A   Clear
8:55 AM 6.8 °F -6.9 °F -0.4 °F 72% 30.20 in 10.0 mi SE 9.2 mph - N/A   Clear
9:15 AM 6.8 °F -9.3 °F -0.4 °F 72% 30.19 in 10.0 mi SSE 12.7 mph - N/A   Clear
9:35 AM 8.6 °F -8.3 °F -0.4 °F 67% 30.17 in 10.0 mi SSE 15.0 mph - N/A   Clear
9:55 AM 8.6 °F -7.7 °F -0.4 °F 67% 30.19 in 10.0 mi SSE 13.8 mph - N/A   Clear
10:15 AM 10.4 °F -4.8 °F 1.4 °F 67% 30.18 in 10.0 mi SSE 12.7 mph - N/A   Clear
10:35 AM 12.2 °F -4.3 °F 1.4 °F 62% 30.18 in 10.0 mi SSE 16.1 mph 19.6 mph N/A   Clear
10:55 AM 12.2 °F -4.8 °F 3.2 °F 67% 30.17 in 10.0 mi SSE 17.3 mph - N/A   Clear
11:15 AM 14.0 °F -1.4 °F 3.2 °F 62% 30.16 in 10.0 mi SSE 15.0 mph - N/A   Clear
11:35 AM 15.8 °F 1.4 °F 5.0 °F 62% 30.16 in 10.0 mi SSE 13.8 mph - N/A   Clear
11:55 AM 17.6 °F 3.7 °F 5.0 °F 58% 30.15 in 10.0 mi SSE 13.8 mph - N/A   Clear
12:15 PM 17.6 °F 5.0 °F 6.8 °F 63% 30.14 in 10.0 mi SE 11.5 mph - N/A   Clear
12:35 PM 19.4 °F 6.6 °F 6.8 °F 58% 30.12 in 10.0 mi SE 12.7 mph - N/A   Clear
12:55 PM 19.4 °F 5.0 °F 6.8 °F 58% 30.10 in - SSE 16.1 mph - N/A   Clear
1:15 PM 19.4 °F 5.0 °F 8.6 °F 63% 30.08 in 10.0 mi SE 16.1 mph - N/A   Clear
1:35 PM 21.2 °F 7.3 °F 8.6 °F 58% 30.07 in 10.0 mi SSE 16.1 mph - N/A   Scattered Clouds
1:55 PM 23.0 °F 10.1 °F 10.4 °F 59% 30.07 in 10.0 mi SE 15.0 mph 18.4 mph N/A   Scattered Clouds
2:15 PM 24.8 °F 14.0 °F 10.4 °F 54% 30.05 in 10.0 mi SE 11.5 mph - N/A   Clear
2:35 PM 24.8 °F 12.9 °F 10.4 °F 54% 30.03 in 10.0 mi ESE 13.8 mph - N/A   Mostly Cloudy
2:55 PM 24.8 °F 13.4 °F 12.2 °F 59% 30.04 in 10.0 mi SE 12.7 mph - N/A   Overcast
3:15 PM 26.6 °F 16.2 °F 12.2 °F 55% 30.05 in 10.0 mi SE 11.5 mph - N/A   Overcast
3:35 PM 26.6 °F 16.2 °F 12.2 °F 55% 30.05 in 10.0 mi SSE 11.5 mph - N/A   Overcast
3:55 PM 26.6 °F 16.8 °F 12.2 °F 55% 30.05 in 10.0 mi SE 10.4 mph - N/A   Scattered Clouds
4:15 PM 24.8 °F 14.0 °F 14.0 °F 64% 30.05 in 10.0 mi SE 11.5 mph - N/A   Partly Cloudy
4:35 PM 24.8 °F 12.4 °F 12.2 °F 59% 30.03 in 10.0 mi SE 15.0 mph - N/A   Mostly Cloudy
4:55 PM 24.8 °F 13.4 °F 12.2 °F 59% 30.03 in 10.0 mi SE 12.7 mph - N/A   Overcast
5:15 PM 24.8 °F 12.9 °F 12.2 °F 59% 30.02 in 10.0 mi SE 13.8 mph - N/A   Mostly Cloudy
5:35 PM 24.8 °F 14.0 °F 12.2 °F 59% 30.03 in 10.0 mi ESE 11.5 mph - N/A   Scattered Clouds
5:55 PM 23.0 °F 10.6 °F 12.2 °F 63% 30.02 in 10.0 mi ESE 13.8 mph - N/A   Clear
6:15 PM 23.0 °F 11.1 °F 10.4 °F 59% 30.01 in 10.0 mi SE 12.7 mph - N/A   Clear
6:35 PM 21.2 °F 7.8 °F 10.4 °F 63% 30.00 in 10.0 mi SE 15.0 mph - N/A   Clear
6:55 PM 21.2 °F 10.1 °F 12.2 °F 68% 30.00 in 10.0 mi SE 10.4 mph - N/A   Clear
7:15 PM 21.2 °F 9.5 °F 10.4 °F 63% 30.00 in 10.0 mi SE 11.5 mph - N/A   Clear
7:35 PM 21.2 °F 10.1 °F 12.2 °F 68% 29.99 in 10.0 mi SE 10.4 mph - N/A   Clear
7:55 PM 21.2 °F 10.1 °F 12.2 °F 68% 29.99 in 10.0 mi ESE 10.4 mph - N/A   Clear
8:15 PM 21.2 °F 11.7 °F 12.2 °F 68% 29.99 in 10.0 mi East 8.1 mph - N/A   Clear
8:35 PM 21.2 °F 10.1 °F 12.2 °F 68% 29.98 in 10.0 mi East 10.4 mph - N/A   Clear
8:55 PM 21.2 °F 10.9 °F 12.2 °F 68% 29.98 in 10.0 mi East 9.2 mph - N/A   Clear
9:15 PM 21.2 °F 11.7 °F 12.2 °F 68% 29.98 in 10.0 mi East 8.1 mph - N/A   Clear
9:35 PM 21.2 °F 10.9 °F 12.2 °F 68% 29.97 in 10.0 mi ESE 9.2 mph - N/A   Clear
9:55 PM 21.2 °F 10.9 °F 12.2 °F 68% 29.97 in 10.0 mi ESE 9.2 mph - N/A   Clear
10:15 PM 21.2 °F 9.5 °F 14.0 °F 74% 29.96 in 10.0 mi SE 11.5 mph - N/A   Clear
10:35 PM 21.2 °F 11.7 °F 14.0 °F 74% 29.95 in 10.0 mi ESE 8.1 mph - N/A   Clear
10:55 PM 21.2 °F 10.1 °F 15.8 °F 80% 29.95 in 10.0 mi SE 10.4 mph - N/A   Partly Cloudy
11:15 PM 24.8 °F 12.9 °F 15.8 °F 69% 29.94 in 10.0 mi SSE 13.8 mph - N/A   Clear
11:35 PM 26.6 °F 16.8 °F 17.6 °F 69% 29.94 in 10.0 mi SSE 10.4 mph - N/A   Clear
11:55 PM 26.6 °F 15.7 °F 19.4 °F 74% 29.94 in 10.0 mi SSE 12.7 mph - N/A   Clear